EW2001 Weather Reports


time (UTC)temp
C
wind
direction
speed
KPH
gust
KPH
rain 1hr
cm
rain 24hr
cm
rain mn
cm
humidity
%
barometer
mb
20260506234532 24 276 3.2 11.3 0.00 0.00 0.00 39 1012.0
20260506233017 24 250 3.2 14.5 0.00 0.00 0.00 37 1012.2
20260506231529 24 278 4.8 14.5 0.00 0.00 0.00 37 1012.3
20260506230013 24 312 3.2 17.7 0.00 0.00 0.00 38 1012.4
20260506224510 22 65 0.0 11.3 0.00 0.00 0.00 41 1012.6
20260506223007 22 102 1.6 8.0 0.00 0.00 0.00 40 1012.8
20260506221506 22 82 0.0 11.3 0.00 0.00 0.00 40 1013.1
20260506220004 23 85 0.0 4.8 0.00 0.00 0.00 37 1013.4
20260506214502 23 283 1.6 9.7 0.00 0.00 0.00 36 1013.6
20260506213136 23 155 6.4 12.9 0.00 0.00 0.00 36 1013.8
20260506211616 23 175 4.8 11.3 0.00 0.00 0.00 36 1014.1
20260506210101 23 207 4.8 11.3 0.00 0.00 0.00 35 1014.3
20260506204556 22 228 1.6 12.9 0.00 0.00 0.00 37 1014.6
20260506203049 22 130 3.2 12.9 0.00 0.00 0.00 36 1014.7
20260506201556 21 97 6.4 9.7 0.00 0.00 0.00 38 1014.9
20260506200039 20 121 4.8 14.5 0.00 0.00 0.00 41 1015.1
20260506194543 19 108 9.7 12.9 0.00 0.00 0.00 39 1015.3
20260506193031 18 92 6.4 12.9 0.00 0.00 0.00 41 1015.6
20260506191527 17 80 4.8 12.9 0.00 0.00 0.00 42 1016.0
20260506190024 16 89 4.8 9.7 0.00 0.00 0.00 42 1016.3
20260506184522 16 82 6.4 11.3 0.00 0.00 0.00 43 1016.5
20260506183029 15 98 6.4 14.5 0.00 0.00 0.00 46 1016.7
20260506181518 15 58 6.4 14.5 0.00 0.00 0.00 44 1016.7
20260506180017 15 71 6.4 11.3 0.00 0.00 0.00 42 1016.8
20260506174515 15 96 3.2 9.7 0.00 0.00 0.00 40 1017.0
20260506173012 14 113 4.8 11.3 0.00 0.00 0.00 42 1017.1
20260506171515 14 98 1.6 6.4 0.00 0.00 0.00 47 1017.3
20260506170011 13 61 0.0 8.0 0.00 0.00 0.00 47 1017.5
20260506164510 13 100 3.2 11.3 0.00 0.00 0.00 48 1017.7
20260506163011 12 65 4.8 9.7 0.00 0.00 0.00 49 1017.8
20260506161509 13 92 6.4 12.9 0.00 0.00 0.00 52 1017.7
20260506160008 13 96 6.4 11.3 0.00 0.00 0.00 50 1017.9
20260506154507 12 83 6.4 14.5 0.00 0.00 0.00 51 1017.8
20260506153010 12 99 4.8 12.9 0.00 0.00 0.00 47 1017.9
20260506151506 12 8 1.6 8.0 0.00 0.00 0.00 50 1017.9
20260506150005 11 315 0.0 6.4 0.00 0.00 0.00 53 1018.1
20260506144505 11 60 3.2 9.7 0.00 0.00 0.00 53 1018.1
20260506143007 11 46 1.6 14.5 0.00 0.00 0.00 57 1018.0
20260506141508 10 88 0.0 11.3 0.00 0.00 0.00 63 1018.1
20260506140004 8 85 4.8 11.3 0.00 0.00 0.00 66 1018.1
20260506134502 8 96 4.8 12.9 0.00 0.00 0.00 66 1018.1
20260506133000 8 42 6.4 14.5 0.00 0.00 0.00 69 1018.1
20260506131559 8 71 3.2 11.3 0.00 0.00 0.00 69 1017.9
20260506124556 7 78 3.2 8.0 0.00 0.00 0.00 69 1017.7
20260506123053 7 18 3.2 9.7 0.00 0.00 0.00 67 1017.6
20260506121553 7 65 0.0 9.7 0.00 0.00 0.00 66 1017.4
20260506120046 7 67 1.6 11.3 0.00 0.00 0.00 65 1017.4
20260506114544 8 44 1.6 11.3 0.00 0.00 0.00 65 1017.3
20260506113042 8 57 4.8 11.3 0.00 0.00 0.00 64 1017.4
20260506111539 9 30 6.4 11.3 0.00 0.00 0.00 60 1017.4
20260506110035 9 66 4.8 9.7 0.00 0.00 0.00 58 1017.3
20260506104531 10 51 4.8 11.3 0.00 0.00 0.00 54 1017.2
20260506103029 11 56 6.4 12.9 0.00 0.00 0.00 52 1017.2
20260506101524 11 53 8.0 16.1 0.00 0.00 0.00 47 1017.1
20260506100021 11 52 3.2 9.7 0.00 0.00 0.00 50 1017.0
20260506094520 11 346 4.8 11.3 0.00 0.00 0.00 51 1017.0
20260506093017 12 53 4.8 9.7 0.00 0.00 0.00 49 1017.0
20260506091516 12 338 4.8 12.9 0.00 0.00 0.00 45 1017.1
20260506090017 12 345 4.8 16.1 0.00 0.00 0.00 46 1016.9
20260506084508 12 354 3.2 14.5 0.00 0.00 0.00 48 1016.8
20260506083006 13 23 4.8 19.3 0.00 0.00 0.00 49 1016.8
20260506081503 14 48 1.6 14.5 0.00 0.00 0.00 38 1016.7
20260506073102 14 127 4.8 11.3 0.00 0.00 0.00 37 1016.5
20260506071556 14 70 1.6 11.3 0.00 0.00 0.00 38 1016.2
20260506061559 12 305 3.2 4.8 0.00 0.00 0.00 53 1015.4
20260506050107 13 1 6.4 14.5 0.00 0.00 0.00 54 1014.7
20260506044551 12 309 0.0 6.4 0.00 0.00 0.00 58 1014.6
20260506043046 13 47 0.0 1.6 0.00 0.00 0.00 59 1014.5
20260506041545 13 47 0.0 0.0 0.00 0.00 0.00 56 1014.3
20260506040046 14 47 0.0 0.0 0.00 0.00 0.00 53 1014.1
20260506034543 15 47 0.0 0.0 0.00 0.00 0.00 49 1014.0
20260506033044 16 48 0.0 0.0 0.00 0.00 0.00 45 1013.7
20260506031548 16 46 0.0 0.0 0.00 0.00 0.00 45 1013.5
20260506030042 17 46 0.0 0.0 0.00 0.00 0.00 43 1013.4
20260506024546 18 46 0.0 1.6 0.00 0.00 0.00 39 1013.3
20260506023037 20 154 0.0 3.2 0.00 0.00 0.00 34 1013.1
20260506021547 21 154 0.0 3.2 0.00 0.00 0.00 31 1013.1
20260506020036 22 167 0.0 0.0 0.00 0.00 0.00 24 1013.1
20260506014536 22 162 0.0 3.2 0.00 0.00 0.00 24 1013.0
20260506013035 21 70 0.0 8.0 0.00 0.00 0.00 25 1013.1
20260506011536 22 174 0.0 4.8 0.00 0.00 0.00 24 1013.2
20260506010030 21 158 1.6 6.4 0.00 0.00 0.00 24 1013.2
20260506004530 21 153 4.8 9.7 0.00 0.00 0.00 24 1013.3
20260506003028 21 154 4.8 9.7 0.00 0.00 0.00 25 1013.4
20260506001526 21 184 3.2 6.4 0.00 0.00 0.00 25 1013.5
20260506000023 21 45 1.6 6.4 0.00 0.00 0.00 24 1013.7